This is the latest recevied weather packets stored in our database for station/object AJ1L. If no packets are shown the sender has not sent any weather packets the latest 10 day(s).
| Time | Temp. | Humidity | Pressure | Rain* | Wind** | Luminosity | Snow |
|---|---|---|---|---|---|---|---|
| 1777746644 | 13.33° C | 51% | 1010.8 hPa | 0 mm | - | - | - |
| 1777745643 | 13.33° C | 49% | 1011.1 hPa | 0 mm | - | - | - |
| 1777744644 | 14.44° C | 48% | 1011.1 hPa | 0 mm | - | - | - |
| 1777743644 | 13.89° C | 49% | 1010.8 hPa | 0 mm | - | - | - |
| 1777742643 | 14.44° C | 54% | 1010.8 hPa | 0 mm | - | - | - |
| 1777741643 | 15° C | 49% | 1010.8 hPa | 0 mm | - | - | - |
| 1777740644 | 15.56° C | 57% | 1010.6 hPa | 0 mm | - | - | - |
| 1777739643 | 15.56° C | 53% | 1010.9 hPa | 0 mm | - | - | - |
| 1777738643 | 15° C | 53% | 1010.8 hPa | 0 mm | - | - | - |
| 1777737644 | 15° C | 59% | 1011.4 hPa | 0 mm | - | - | - |
| 1777736643 | 13.89° C | 58% | 1011.5 hPa | 0 mm | - | - | - |
| 1777735643 | 14.44° C | 62% | 1011.4 hPa | 0 mm | - | - | - |
| 1777734644 | 14.44° C | 62% | 1011.8 hPa | 0 mm | - | - | - |
| 1777733643 | 15° C | 62% | 1011.6 hPa | 0 mm | - | - | - |
| 1777732643 | 13.89° C | 66% | 1011.3 hPa | 0 mm | - | - | - |
| 1777731644 | 12.78° C | 69% | 1012 hPa | 0 mm | - | - | - |
| 1777730643 | 12.78° C | 70% | 1011.8 hPa | 0 mm | - | - | - |
| 1777729643 | 12.22° C | 71% | 1012.3 hPa | 0 mm | - | - | - |
| 1777728643 | 11.67° C | 74% | 1012.5 hPa | 0 mm | - | - | - |
| 1777727643 | 11.11° C | 76% | 1012.4 hPa | 0 mm | - | - | - |
| 1777726644 | 11.67° C | 74% | 1012.5 hPa | 0 mm | - | - | - |
| 1777725643 | 11.67° C | 74% | 1012.3 hPa | 0 mm | - | - | - |
| 1777723643 | 10° C | 77% | 1011.8 hPa | 0 mm | - | - | - |
| 1777722644 | 8.89° C | 77% | 1011.6 hPa | 0 mm | - | - | - |
| 1777721643 | 8.89° C | 78% | 1012 hPa | 0 mm | - | - | - |
* Rain latest hour (hover to see other rain measurements)
** Current wind speed in m/s (hover to see current wind gust speed)